SBI2626 UNWW-UUDD

Flight info

Callsign SBI2626
Flight time N/A
Altitude 32000
Route GIMUK1L GIMUK R480 NILAN L158 ABESA P983 GISMA M864 OGTON/K0839F340 M864 AGNOK/K0807F280 M864 KERUN P164 IDMOR M864 EKSER P162 OTKOL T787 URAGO URAGO3L
Aircraft A321/M-SDE3FGHIRWY/LB1

Departure

Time 2026-05-06 21:46
Airport Spichenkovo Airport (UNWW)

Arrival

Time N/A
Airport Domodedovo International Airport (UUDD)
Time Latitude Longitude Altitude Speed Heading
2026-05-06 21:32 53.80432 86.86634 1017 ft 0 kts 291°
2026-05-06 21:38 53.80432 86.86636 1017 ft 2 kts 291°
2026-05-06 21:38 53.80425 86.86678 1017 ft 4 kts 275°
2026-05-06 21:38 53.80425 86.86723 1017 ft 4 kts 264°
2026-05-06 21:38 53.80425 86.86733 1017 ft 0 kts 264°
2026-05-06 21:41 53.80425 86.86727 1017 ft 1 kts 264°
2026-05-06 21:41 53.80425 86.86726 1017 ft 0 kts 264°
2026-05-06 21:43 53.80425 86.86724 1017 ft 1 kts 263°
2026-05-06 21:43 53.80402 86.86699 1017 ft 9 kts 203°
2026-05-06 21:43 53.80334 86.86687 1017 ft 10 kts 153°
2026-05-06 21:43 53.80297 86.86797 1017 ft 11 kts 111°
2026-05-06 21:44 53.80268 86.86931 1017 ft 13 kts 111°
2026-05-06 21:44 53.80199 86.87019 1017 ft 13 kts 152°
2026-05-06 21:44 53.80118 86.87102 1018 ft 14 kts 143°
2026-05-06 21:44 53.80137 86.87185 1017 ft 10 kts 22°
2026-05-06 21:45 53.80154 86.87195 1017 ft 0 kts 20°
2026-05-06 21:45 53.80154 86.87196 1017 ft 0 kts 20°
2026-05-06 21:46 53.80220 86.87236 1016 ft 39 kts 20°
2026-05-06 21:46 53.80745 86.87560 1018 ft 120 kts 20°
2026-05-06 21:46 53.81740 86.88179 1118 ft 175 kts 20°
2026-05-06 21:46 53.82867 86.88899 2043 ft 171 kts 20°
2026-05-06 21:47 53.83977 86.89587 3003 ft 168 kts 20°
2026-05-06 21:47 53.85081 86.90256 3678 ft 170 kts 19°
2026-05-06 21:47 53.86257 86.90968 3927 ft 190 kts 19°
2026-05-06 21:47 53.87564 86.91761 4166 ft 207 kts 20°
2026-05-06 21:48 53.88953 86.92606 4609 ft 215 kts 20°
2026-05-06 21:48 53.90368 86.93456 5287 ft 216 kts 16°
2026-05-06 21:48 53.91855 86.93515 5903 ft 219 kts 340°
2026-05-06 21:48 53.93060 86.92001 6497 ft 220 kts 301°
2026-05-06 21:49 53.93666 86.89613 7116 ft 222 kts 289°
2026-05-06 21:49 53.94183 86.87133 7753 ft 224 kts 289°
2026-05-06 21:49 53.94701 86.84618 8373 ft 227 kts 289°